Weather History for Houghton, MI

Change the Weather History Date:

Friday, May 3, 2013

  Actual Average Record
Temperature  
Mean Temperature 30 °F -  
Max Temperature 32 °F 54 °F 83 °F (1955)
Min Temperature 28 °F 35 °F 20 °F (1954)
Degree Days  
Heating Degree Days 35    
Moisture  
Dew Point 28 °F    
Average Humidity 90    
Maximum Humidity 93    
Minimum Humidity 85    
Precipitation  
Precipitation 0.11 in - - ()
Sea Level Pressure  
Sea Level Pressure 30.31 in    
Wind  
Wind Speed 11 mph (NNE)    
Max Wind Speed 16 mph    
Max Gust Speed 28 mph    
Visibility 5 miles    
Events Rain , Snow    
Averages and records for this station are not official NWS values.
T = Trace of Precipitation, MM = Missing Value Source: NWS Daily Summary

Daily Weather History Graph

Daily Weather History Graph

Search for Another Location

Airport:

Trip Planner

Search our weather history database for the weather conditions in past years. The results will help you decide how hot, cold, wet, or windy it might be!

Date:

Astronomy

May. 03, 2013 Rise Set
Actual Time 6:34 AM EDT 9:08 PM EDT
Civil Twilight 6:00 AM EDT 9:42 PM EDT
Nautical Twilight 5:16 AM EDT 10:26 PM EDT
Astronomical Twilight 4:26 AM EDT 11:16 PM EDT
Moon 3:24 AM EDT (5/3) 2:38 PM EDT (5/3)
Length of Visible Light 15h 42m
Length of Day
14h 33m
Last Quarter, 37% of the Moon is Illuminated
May 3
Last Quarter
May 9
New
May 18
First Quarter
May 25
Full
May 31
Last Quarter

Hourly Weather History & Observations

Time (EDT) Temp. Windchill Dew Point Humidity Pressure Visibility Wind Dir Wind Speed Gust Speed Precip Events Conditions
12:12 AM 30.2 °F 20.2 °F 26.6 °F 86% 30.41 in 3.0 mi North 12.7 mph - 0.01 in Snow Light Snow
12:24 AM 30.2 °F 19.3 °F 26.6 °F 86% 30.39 in 10.0 mi NNE 15.0 mph - 0.01 in   Overcast
12:42 AM 30.2 °F 19.3 °F 26.6 °F 86% 30.38 in 5.0 mi North 15.0 mph 23.0 mph 0.02 in Rain Light Freezing Rain
12:49 AM 30.2 °F 19.8 °F 26.6 °F 86% 30.39 in 4.0 mi NNE 13.8 mph 24.2 mph 0.03 in Rain Light Freezing Rain
12:53 AM 30.0 °F 18.7 °F 27.0 °F 88% 30.44 in 5.0 mi NNE 16.1 mph 23.0 mph 0.03 in Rain Light Freezing Rain
1:10 AM 30.2 °F 18.9 °F 26.6 °F 86% 30.38 in 7.0 mi NNE 16.1 mph 27.6 mph 0.00 in   Overcast
1:53 AM 28.9 °F 17.7 °F 26.1 °F 89% 30.42 in 8.0 mi NNE 15.0 mph - 0.01 in   Overcast
2:53 AM 28.9 °F 18.2 °F 26.1 °F 89% 30.40 in 10.0 mi NNE 13.8 mph - 0.00 in   Overcast
3:53 AM 28.9 °F 18.2 °F 25.0 °F 85% 30.39 in 10.0 mi NNE 13.8 mph - N/A   Overcast
4:53 AM 28.0 °F 17.5 °F 26.1 °F 92% 30.38 in 10.0 mi NNE 12.7 mph 18.4 mph N/A   Overcast
5:53 AM 28.9 °F 20.4 °F 26.1 °F 89% 30.37 in 4.0 mi NNE 9.2 mph 18.4 mph N/A   Overcast
6:01 AM 28.4 °F 20.4 °F 26.6 °F 93% 30.33 in 4.0 mi NNE 8.1 mph - 0.00 in Rain Light Freezing Rain
6:53 AM 28.9 °F 20.4 °F 26.1 °F 89% 30.36 in 5.0 mi NE 9.2 mph - 0.00 in Rain Light Freezing Rain
7:51 AM 28.4 °F 19.1 °F 26.6 °F 93% 30.31 in 6.0 mi NNE 10.4 mph - 0.01 in   Overcast
7:53 AM 28.9 °F 20.4 °F 26.1 °F 89% 30.36 in 6.0 mi NNE 9.2 mph - 0.01 in   Overcast
8:04 AM 28.4 °F 18.5 °F 26.6 °F 93% 30.31 in 1.8 mi NNE 11.5 mph - 0.00 in Snow Light Snow
8:18 AM 28.4 °F 20.4 °F 26.6 °F 93% 30.32 in 0.8 mi North 8.1 mph - 0.00 in Snow Light Snow
8:53 AM 28.9 °F 21.1 °F 27.0 °F 92% 30.35 in 0.8 mi NNE 8.1 mph - 0.00 in Snow Light Snow
9:00 AM 30.2 °F 21.9 °F 26.6 °F 86% 30.30 in 1.0 mi NNE 9.2 mph - 0.00 in Snow Light Snow
9:27 AM 30.2 °F 20.2 °F 26.6 °F 86% 30.31 in 2.0 mi NE 12.7 mph 18.4 mph 0.00 in Snow Light Snow
9:41 AM 30.2 °F 23.4 °F 28.4 °F 93% 30.30 in 1.0 mi NNE 6.9 mph - 0.00 in Snow Light Snow
9:49 AM 30.2 °F 19.8 °F 26.6 °F 86% 30.30 in 3.0 mi NNE 13.8 mph 18.4 mph 0.00 in Snow Light Snow
9:53 AM 30.0 °F 21.7 °F 27.0 °F 88% 30.35 in 5.0 mi NNE 9.2 mph - 0.00 in   Overcast
10:22 AM 30.2 °F 21.3 °F 26.6 °F 86% 30.29 in 1.8 mi NNE 10.4 mph - 0.00 in Snow Light Snow
10:53 AM 30.0 °F 20.5 °F 28.0 °F 92% 30.33 in 1.0 mi NNE 11.5 mph - 0.00 in Snow Light Snow
11:08 AM 30.2 °F 22.6 °F 28.4 °F 93% 30.28 in 2.0 mi NE 8.1 mph 19.6 mph 0.00 in Snow Light Snow
11:20 AM 30.2 °F 21.3 °F 28.4 °F 93% 30.28 in 1.0 mi NNE 10.4 mph - 0.01 in Snow Light Snow
11:28 AM 30.2 °F 22.6 °F 28.4 °F 93% 30.27 in 0.8 mi NNE 8.1 mph - 0.01 in Snow Light Snow
11:37 AM 30.2 °F 20.2 °F 28.4 °F 93% 30.27 in 1.2 mi NNE 12.7 mph 18.4 mph 0.01 in Snow Light Snow
11:53 AM 30.0 °F 22.4 °F 28.0 °F 92% 30.32 in 0.8 mi NNE 8.1 mph - 0.01 in Snow Light Snow
11:56 AM 30.2 °F 23.4 °F 28.4 °F 93% 30.27 in 1.0 mi NNE 6.9 mph - 0.00 in Snow Light Snow
12:00 PM 30.2 °F 22.6 °F 28.4 °F 93% 30.27 in 0.8 mi NNE 8.1 mph - 0.00 in Snow Light Snow
12:06 PM 30.2 °F 20.8 °F 28.4 °F 93% 30.27 in 1.0 mi NE 11.5 mph 17.3 mph 0.00 in Snow Light Snow
12:19 PM 30.2 °F 20.8 °F 28.4 °F 93% 30.27 in 2.5 mi NE 11.5 mph - 0.00 in Snow Light Snow
12:26 PM 30.2 °F 21.3 °F 28.4 °F 93% 30.27 in 4.0 mi NE 10.4 mph - 0.00 in   Overcast
12:32 PM 30.2 °F 24.3 °F 28.4 °F 93% 30.28 in 2.5 mi NE 5.8 mph - 0.01 in Rain Light Freezing Rain
12:42 PM 30.2 °F 21.3 °F 28.4 °F 93% 30.27 in 5.0 mi NE 10.4 mph - 0.01 in Rain Light Freezing Rain
12:53 PM 30.9 °F 22.2 °F 28.0 °F 89% 30.32 in 7.0 mi NE 10.4 mph - 0.01 in Rain Light Freezing Rain
1:03 PM 30.2 °F 21.3 °F 28.4 °F 93% 30.27 in 10.0 mi NE 10.4 mph - 0.00 in   Overcast
1:53 PM 30.9 °F 21.7 °F 28.0 °F 89% 30.31 in 5.0 mi NE 11.5 mph - 0.00 in   Overcast
2:53 PM 30.9 °F 21.2 °F 28.0 °F 89% 30.30 in 10.0 mi NE 12.7 mph - N/A   Overcast
3:53 PM 30.9 °F 22.2 °F 28.0 °F 89% 30.30 in 10.0 mi NE 10.4 mph 18.4 mph N/A   Overcast
4:53 PM 30.9 °F 22.2 °F 28.9 °F 92% 30.29 in 6.0 mi NNE 10.4 mph - N/A   Overcast
5:53 PM 30.9 °F 23.5 °F 28.9 °F 92% 30.28 in 10.0 mi NE 8.1 mph - N/A   Overcast
6:53 PM 30.9 °F 23.5 °F 28.9 °F 92% 30.28 in 10.0 mi NE 8.1 mph - 0.00 in   Overcast
7:21 PM 30.2 °F 22.6 °F 28.4 °F 93% 30.23 in 9.0 mi NNE 8.1 mph - 0.01 in Rain Light Freezing Rain
7:53 PM 30.9 °F 22.8 °F 28.9 °F 92% 30.27 in 8.0 mi NE 9.2 mph - 0.02 in Rain Light Freezing Rain
8:53 PM 32.0 °F 24.2 °F 28.9 °F 88% 30.26 in 9.0 mi NE 9.2 mph - 0.01 in Rain Light Freezing Rain
9:11 PM 32.0 °F 26.4 °F 28.4 °F 87% 30.22 in 10.0 mi NE 5.8 mph - 0.00 in   Overcast
9:53 PM 32.0 °F 25.6 °F 30.0 °F 92% 30.28 in 10.0 mi NNE 6.9 mph - 0.00 in   Overcast
10:53 PM 32.0 °F 28.7 °F 30.0 °F 92% 30.27 in 10.0 mi NNE 3.5 mph - 0.00 in   Overcast
11:53 PM 32.0 °F 26.4 °F 30.0 °F 92% 30.26 in 10.0 mi North 5.8 mph - 0.01 in   Overcast